Group_ship,Cruise,JD_GMT,Date_DDMMYYYY,TIME_HH:MM:SS,Lat_dec_degree,Long_dec_degree,xCO2eq_ppm,xCO2a_ppm,Pres_Equi_hPa,Pres_sealevel_hPa,EqTemp_C,SST(TSG)_C,Sal(TSG)_Permil,Water_flow_l/min,Gasflow_IR_ml/min,Temp_IR_C,Pres_IR_hPa,Ship_heading_true_degree,Ship_speed_knot,Wind_dir_rel_degree,Wind_speed_rel_m/s,fCO2W@SST_uatm,Qcflag_water,fCO2a_uatm,Qcflag_air,dfCO2_uatm,Fluoro_ug/l,Wind_speed_true_m/s,Wind_dir_true_degree,Air_temp_C,Oxygen
AOML_Explorer,Ex0533W,227.055,15082005,1:19:07,24.77,-80.136,400.65,-9,1016.74,1014.04,29.85,30.36,35.918,1.05,89.41,32.37,1016.74,227.8,17.8,291,7.21,391.34,2,-9,9,-9,0.09,9.7,92.61,29.75,231.527726
AOML_Explorer,Ex0533W,227.057,15082005,1:21:40,24.761,-80.146,401.04,-9,1016.74,1014.06,29.84,30.35,35.919,1.04,89.46,32.37,1016.74,227.9,17.8,287,7.21,391.85,2,-9,9,-9,0.09,10.17,91.37,29.76,231.616336
AOML_Explorer,Ex0533W,227.058,15082005,1:24:13,24.752,-80.156,401.45,-9,1016.76,1013.95,29.85,30.29,35.923,1.04,89.44,32.37,1016.76,221.5,17.8,288,8.24,391.36,2,-9,9,-9,0.09,10.51,90.39,29.79,231.451614
AOML_Explorer,Ex0533W,227.06,15082005,1:26:46,24.742,-80.165,401.79,-9,1016.8,1013.95,29.83,30.29,35.917,1.06,89.04,32.37,1016.8,219.4,17.8,286,8.24,391.85,2,-9,9,-9,0.09,10.64,87.84,29.79,230.952878
AOML_Explorer,Ex0533W,227.062,15082005,1:29:19,24.733,-80.174,402,-9,1016.64,1013.78,29.8,30.29,35.915,1.04,89.04,32.36,1016.64,219.7,17.9,275,8.24,392.51,2,-9,9,-9,0.08,11.97,83.08,29.79,230.606167
AOML_Explorer,Ex0533W,227.064,15082005,1:31:52,24.723,-80.183,402.05,-9,1016.65,1013.75,29.79,30.29,35.917,1.04,89.05,32.36,1016.65,220,17.8,282,8.24,392.64,2,-9,9,-9,0.08,11.14,86.49,29.77,230.573868
AOML_Explorer,Ex0533W,227.066,15082005,1:34:25,24.713,-80.192,402.07,-9,1016.6,1013.79,29.79,30.26,35.922,1.06,88.95,32.35,1016.6,219.3,17.8,275,7.21,392.22,2,-9,9,-9,0.09,11.26,78.96,29.73,231.154034
AOML_Explorer,Ex0533W,227.067,15082005,1:36:58,24.703,-80.201,402.01,-9,1016.65,1013.8,29.78,30.25,35.919,1.06,89.25,32.34,1016.65,219.6,17.8,285,7.72,392.24,2,-9,9,-9,0.09,10.48,85.28,29.75,231.4167
AOML_Explorer,Ex0533W,227.069,15082005,1:39:31,24.694,-80.209,401.83,-9,1016.61,1013.79,29.76,30.27,35.92,1.04,89.1,32.34,1016.61,219.5,17.8,281,8.24,392.58,2,-9,9,-9,0.1,11.23,85.86,29.75,231.484654
AOML_Explorer,Ex0533W,227.071,15082005,1:42:04,24.684,-80.218,401.6,-9,1016.62,1013.87,29.76,30.28,35.929,1.06,89.31,32.33,1016.62,219.1,17.8,290,8.24,392.51,2,-9,9,-9,0.09,10.11,89.38,29.73,231.631658
AOML_Explorer,Ex0533W,227.073,15082005,1:44:37,24.674,-80.227,401.43,-9,1016.67,1013.8,29.77,30.27,35.93,1.04,88.98,32.33,1016.67,219.3,17.8,289,7.72,392.14,2,-9,9,-9,0.1,9.97,86.66,29.71,231.620118
AOML_Explorer,Ex0533W,227.074,15082005,1:47:10,24.664,-80.236,401.46,-9,1016.7,1013.98,29.77,30.32,35.942,1.07,89.13,32.32,1016.7,223.4,17.8,285,6.18,392.76,2,-9,9,-9,0.1,9.69,81.51,29.7,231.703714
AOML_Explorer,Ex0533W,227.076,15082005,1:49:43,24.656,-80.246,401.46,-9,1016.71,1014.07,29.79,30.26,35.941,1.08,88.97,32.31,1016.71,229.8,17.9,291,6.18,391.69,2,-9,9,-9,0.08,9.2,88.89,29.67,231.824925
AOML_Explorer,Ex0533W,227.078,15082005,1:52:16,24.648,-80.257,401.43,-9,1016.72,1014.12,29.79,30.26,35.946,1.06,89.02,32.31,1016.72,230.1,17.8,289,5.66,391.79,2,-9,9,-9,0.09,9.31,85.79,29.7,231.688567
AOML_Explorer,Ex0533W,227.08,15082005,1:54:49,24.64,-80.268,401.43,-9,1016.7,1014.08,29.77,30.27,35.94,1.06,88.99,32.3,1016.7,230.4,17.9,291,5.15,392.14,2,-9,9,-9,0.09,8.99,83.32,29.7,231.746637
AOML_Explorer,Ex0533W,227.082,15082005,1:57:22,24.632,-80.279,401.27,-9,1016.75,1013.96,29.77,30.28,35.956,1.09,89.28,32.29,1016.75,230.3,17.9,290,6.18,392.16,2,-9,9,-9,0.09,9.4,89.05,29.67,232.003154
AOML_Explorer,Ex0533W,227.083,15082005,1:59:55,24.623,-80.289,401.23,-9,1016.68,1013.92,29.78,30.29,35.967,1.09,89.21,32.28,1016.68,230.2,17.9,294,7.21,392.14,2,-9,9,-9,0.08,9.35,95.98,29.79,232.067517
AOML_Explorer,Ex0533W,227.098,15082005,2:21:40,24.554,-80.381,399.55,-9,1016.75,1014.01,29.73,30.25,35.948,1.18,89.19,32.31,1016.75,230.2,17.8,290,7.72,390.69,2,-9,9,-9,0.09,9.96,97.71,29.86,230.999963
AOML_Explorer,Ex0533W,227.1,15082005,2:24:13,24.546,-80.391,399.97,-9,1016.89,1013.98,29.74,30.24,35.948,1.35,89.2,32.31,1016.89,230.3,17.8,278,7.21,390.81,2,-9,9,-9,0.1,11.03,90.8,29.89,230.920308
AOML_Explorer,Ex0533W,227.102,15082005,2:26:46,24.538,-80.402,400.18,-9,1016.86,1014.01,29.75,30.23,35.951,1.34,89.25,32.31,1016.86,230.4,17.8,283,7.72,390.8,2,-9,9,-9,0.1,10.76,95.21,29.87,231.263157
AOML_Explorer,Ex0533W,227.104,15082005,2:29:19,24.53,-80.413,400.36,-9,1016.97,1014.06,29.74,30.21,35.947,1.33,89.23,32.3,1016.97,230.1,17.8,276,8.24,390.89,2,-9,9,-9,0.1,11.89,93.92,29.82,231.14053
AOML_Explorer,Ex0533W,227.105,15082005,2:31:52,24.522,-80.423,400.57,-9,1016.97,1014.21,29.74,30.19,35.943,1.34,89.19,32.3,1016.97,230.6,17.7,280,7.72,390.81,2,-9,9,-9,0.1,11.07,94.27,29.87,231.135591
AOML_Explorer,Ex0533W,227.107,15082005,2:34:25,24.514,-80.434,400.51,-9,1016.97,1014.26,29.71,30.21,35.932,1.33,89.16,32.29,1016.97,229.9,17.7,280,7.72,391.36,2,-9,9,-9,0.1,11.09,93.58,29.87,231.279443
AOML_Explorer,Ex0533W,227.109,15082005,2:36:58,24.506,-80.445,400.36,-9,1017.16,1014.3,29.71,30.19,35.948,1.33,89.22,32.29,1017.16,230.4,17.8,291,8.75,391.13,2,-9,9,-9,0.15,10.36,103.22,29.88,231.158489
AOML_Explorer,Ex0533W,227.111,15082005,2:39:31,24.498,-80.455,400.13,-9,1017.09,1014.37,29.71,30.21,35.953,1.33,89.56,32.28,1017.09,230.1,17.8,287,7.21,391.18,2,-9,9,-9,0.1,10.03,93.9,29.91,230.97242
AOML_Explorer,Ex0533W,227.113,15082005,2:42:04,24.49,-80.466,400.15,-9,1017.25,1014.43,29.7,30.21,35.958,1.34,89.2,32.27,1017.25,230.2,17.8,283,8.75,391.25,2,-9,9,-9,0.1,11.34,99.23,29.89,231.114692
AOML_Explorer,Ex0533W,227.114,15082005,2:44:37,24.482,-80.477,400.15,-9,1017.31,1014.61,29.72,30.2,35.955,1.34,89.41,32.26,1017.31,230.3,17.8,287,5.66,390.93,2,-9,9,-9,0.1,9.39,85.81,29.88,231.1582
AOML_Explorer,Ex0533W,227.116,15082005,2:47:10,24.474,-80.488,400.14,-9,1017.31,1014.62,29.71,30.22,35.96,1.34,89.41,32.26,1017.31,229.8,17.8,280,7.21,391.27,2,-9,9,-9,0.11,10.73,91.25,29.9,230.963405
AOML_Explorer,Ex0533W,227.118,15082005,2:49:43,24.466,-80.498,400.38,-9,1017.37,1014.69,29.71,30.23,35.974,1.32,89.42,32.25,1017.37,230.6,17.9,284,6.18,391.71,2,-9,9,-9,0.1,9.91,88.06,29.94,231.162437
AOML_Explorer,Ex0533W,227.12,15082005,2:52:16,24.458,-80.509,400.27,-9,1017.5,1014.74,29.73,30.21,35.972,1.31,89.23,32.24,1017.5,230.3,17.9,284,7.21,391.12,2,-9,9,-9,0.1,10.37,92.89,29.98,231.165187
AOML_Explorer,Ex0533W,227.121,15082005,2:54:49,24.45,-80.52,400.31,-9,1017.59,1014.92,29.73,30.26,35.949,1.32,89.25,32.23,1017.59,230.6,17.9,285,5.66,391.92,2,-9,9,-9,0.12,9.58,85.59,29.93,231.057378
AOML_Explorer,Ex0533W,227.123,15082005,2:57:22,24.442,-80.531,400.43,-9,1017.56,1014.89,29.72,30.19,35.961,1.32,89.33,32.22,1017.56,230.1,17.9,293,6.69,391.24,2,-9,9,-9,0.1,9.12,92.92,29.91,231.071342
AOML_Explorer,Ex0533W,227.125,15082005,2:59:55,24.433,-80.541,400.39,-9,1017.56,1014.91,29.74,30.22,35.92,1.34,89.46,32.22,1017.56,230.3,17.9,286,6.18,391.18,2,-9,9,-9,0.11,9.69,88.33,29.97,231.146266
AOML_Explorer,Ex0533W,227.14,15082005,3:21:40,24.376,-80.641,399.6,-9,1017.57,1014.97,29.73,30.27,36.002,1.32,89.54,32.25,1017.57,238.5,17.8,295,4.63,391.23,2,-9,9,-9,0.11,8.47,88.64,29.69,230.976123
AOML_Explorer,Ex0533W,227.142,15082005,3:24:13,24.369,-80.653,400.57,-9,1017.53,1014.98,29.74,30.25,36.005,1.33,89.47,32.24,1017.53,238.2,17.8,297,5.15,391.82,2,-9,9,-9,0.11,8.36,91.98,29.69,231.061897
AOML_Explorer,Ex0533W,227.144,15082005,3:26:46,24.363,-80.664,401.52,-9,1017.59,1015.01,29.75,30.25,36,1.32,89.19,32.24,1017.59,238.6,17.9,304,5.66,392.63,2,-9,9,-9,0.11,7.81,96.32,29.68,231.087241
AOML_Explorer,Ex0533W,227.145,15082005,3:29:19,24.356,-80.676,401.9,-9,1017.63,1014.96,29.74,30.23,35.998,1.31,89.52,32.24,1017.63,237.8,17.7,306,5.66,392.83,2,-9,9,-9,0.11,7.47,96.15,29.72,231.24972
AOML_Explorer,Ex0533W,227.147,15082005,3:31:52,24.349,-80.688,402.14,-9,1017.6,1015.07,29.74,30.22,35.989,1.33,89.44,32.23,1017.6,239.3,17.8,303,5.15,393.07,2,-9,9,-9,0.1,7.75,93.36,29.68,231.192028
AOML_Explorer,Ex0533W,227.149,15082005,3:34:25,24.344,-80.7,402.18,-9,1017.61,1015.08,29.73,30.21,35.979,1.32,89.38,32.23,1017.61,245.5,17.8,314,4.63,393.09,2,-9,9,-9,0.1,6.89,94.84,29.68,230.977794
AOML_Explorer,Ex0533W,227.151,15082005,3:36:58,24.339,-80.713,402.31,-9,1017.65,1015.08,29.72,30.2,35.944,1.33,89.15,32.22,1017.65,247.2,17.9,329,3.6,393.13,2,-9,9,-9,0.1,6.49,84.76,29.7,231.173146
AOML_Explorer,Ex0533W,227.152,15082005,3:39:31,24.334,-80.726,402.46,-9,1017.71,1015.08,29.71,30.2,35.945,1.33,89.09,32.21,1017.71,247.5,17.9,331,4.12,393.56,2,-9,9,-9,0.13,6.07,88,29.74,231.033279
AOML_Explorer,Ex0533W,227.154,15082005,3:42:04,24.329,-80.739,402.78,-9,1017.73,1015.16,29.7,30.2,35.935,1.33,89.12,32.2,1017.73,246.7,17.9,340,5.15,393.95,2,-9,9,-9,0.12,4.84,90.23,29.68,230.907953
AOML_Explorer,Ex0533W,227.156,15082005,3:44:37,24.324,-80.752,402.84,-9,1017.69,1015.11,29.7,30.24,35.927,1.33,88.71,32.2,1017.69,246.8,17.8,309,5.66,394.43,2,-9,9,-9,0.1,7.3,104.96,29.73,230.848728
AOML_Explorer,Ex0533W,227.158,15082005,3:47:10,24.319,-80.764,402.85,-9,1017.69,1015.14,29.7,30.25,35.957,1.33,89.34,32.19,1017.69,246.2,17.8,317,5.15,394.68,2,-9,9,-9,0.11,6.55,99.57,29.74,230.629605
AOML_Explorer,Ex0533W,227.16,15082005,3:49:43,24.314,-80.777,402.84,-9,1017.64,1015.08,29.73,30.26,35.956,1.3,89.27,32.19,1017.64,246.8,17.8,325,4.63,394.36,2,-9,9,-9,0.1,6.1,93.69,29.73,230.431517
AOML_Explorer,Ex0533W,227.161,15082005,3:52:16,24.309,-80.79,403.13,-9,1017.53,1014.98,29.74,30.26,35.955,1.34,89.46,32.18,1017.53,246.7,17.8,321,4.12,394.36,2,-9,9,-9,0.11,6.59,90.59,29.76,230.293615
AOML_Explorer,Ex0533W,227.163,15082005,3:54:49,24.304,-80.803,403.34,-9,1017.43,1014.92,29.74,30.29,35.975,1.35,89.08,32.17,1017.43,246.5,17.9,334,3.6,395.11,2,-9,9,-9,0.1,6.24,81.97,29.76,230.07766
AOML_Explorer,Ex0533W,227.165,15082005,3:57:22,24.299,-80.816,403.55,-9,1017.44,1014.88,29.76,30.27,35.977,1.31,89.33,32.17,1017.44,246.7,17.9,336,3.09,394.64,2,-9,9,-9,0.1,6.55,78.21,29.75,228.88297
AOML_Explorer,Ex0533W,227.167,15082005,3:59:55,24.294,-80.828,403.7,-9,1017.39,1014.78,29.77,30.29,35.979,1.31,89.24,32.17,1017.39,246.2,17.8,336,4.63,394.95,2,-9,9,-9,0.1,5.34,87.78,29.82,227.656126
AOML_Explorer,Ex0533W,227.18,15082005,4:19:07,24.256,-80.926,403.29,-9,1017.36,1014.75,29.87,30.4,36.012,1.32,89.32,32.2,1017.36,246,18.2,313,4.63,394.48,2,-9,9,-9,0.1,7.14,94.76,29.75,225.962904
AOML_Explorer,Ex0533W,227.182,15082005,4:21:40,24.251,-80.939,404.71,-9,1017.31,1014.72,29.88,30.33,35.999,1.32,89.34,32.2,1017.31,246.6,18.3,318,4.12,394.81,2,-9,9,-9,0.1,7,90.17,29.73,225.949882
AOML_Explorer,Ex0533W,227.183,15082005,4:24:13,24.246,-80.952,405.32,-9,1017.23,1014.65,29.86,30.31,35.982,1.32,89.33,32.2,1017.23,246.5,18.2,337,3.6,395.38,2,-9,9,-9,0.11,6.27,80.35,29.72,225.793749
AOML_Explorer,Ex0533W,227.185,15082005,4:26:46,24.24,-80.965,405.45,-9,1017.1,1014.57,29.81,30.35,36.005,1.33,89.08,32.19,1017.1,247,18.3,335,4.63,396.77,2,-9,9,-9,0.1,5.66,88.34,29.75,225.425867
AOML_Explorer,Ex0533W,227.187,15082005,4:29:19,24.235,-80.978,405.19,-9,1017.11,1014.52,29.81,30.4,35.998,1.33,89.26,32.19,1017.11,246.1,18.3,335,3.09,397.08,2,-9,9,-9,0.11,6.78,77.53,29.73,225.534562
AOML_Explorer,Ex0533W,227.189,15082005,4:31:52,24.23,-80.991,405.38,-9,1017.06,1014.49,29.84,30.37,35.984,1.3,89.21,32.18,1017.06,246.7,18.4,354,3.6,396.44,2,-9,9,-9,0.1,5.91,70.98,29.69,225.274817
AOML_Explorer,Ex0533W,227.191,15082005,4:34:25,24.225,-81.004,405.97,-9,1016.97,1014.49,29.87,30.38,35.939,1.3,89.11,32.18,1016.97,246.4,18.4,353,3.6,396.78,2,-9,9,-9,0.1,5.92,71.23,29.67,225.463721
AOML_Explorer,Ex0533W,227.192,15082005,4:36:58,24.22,-81.018,407.15,-9,1016.98,1014.43,29.85,30.37,35.933,1.32,89.01,32.18,1016.98,246.6,18.5,5,3.09,397.99,2,-9,9,-9,0.11,6.45,64.52,29.72,225.938124
AOML_Explorer,Ex0533W,227.194,15082005,4:39:31,24.215,-81.031,408.2,-9,1016.96,1014.4,29.86,30.38,35.911,1.32,89.26,32.17,1016.96,246.7,18.5,345,4.63,399.05,2,-9,9,-9,0.11,5.21,80.55,29.66,226.06713
AOML_Explorer,Ex0533W,227.196,15082005,4:42:04,24.209,-81.044,409.11,-9,1016.93,1014.43,29.85,30.41,35.933,1.33,89.12,32.17,1016.93,246.5,18.6,359,4.12,400.4,2,-9,9,-9,0.11,5.46,67.87,29.7,225.501341
AOML_Explorer,Ex0533W,227.198,15082005,4:44:37,24.204,-81.058,409.5,-9,1016.92,1014.45,29.86,30.42,35.975,1.3,88.96,32.17,1016.92,246.9,18.6,0,4.12,400.82,2,-9,9,-9,0.1,5.46,67.49,29.65,225.50487
AOML_Explorer,Ex0533W,227.199,15082005,4:47:10,24.199,-81.071,409.71,-9,1016.96,1014.44,29.89,30.41,36.009,1.32,89,32.16,1016.96,246.8,18.7,355,5.15,400.44,2,-9,9,-9,0.1,4.54,73.49,29.72,225.192312
AOML_Explorer,Ex0533W,227.201,15082005,4:49:43,24.194,-81.084,409.53,-9,1017.03,1014.49,29.89,30.41,36.013,1.31,89.08,32.16,1017.03,246.5,18.6,354,4.63,400.27,2,-9,9,-9,0.11,5,72.78,29.66,224.978814
AOML_Explorer,Ex0533W,227.203,15082005,4:52:16,24.189,-81.097,408.92,-9,1017.04,1014.51,29.88,30.42,36.007,1.32,88.81,32.16,1017.04,246.9,18.6,336,4.63,399.94,2,-9,9,-9,0.11,5.66,86.96,29.73,225.62205
AOML_Explorer,Ex0533W,227.205,15082005,4:54:49,24.183,-81.111,408.73,-9,1017.06,1014.54,29.89,30.43,36.008,1.33,88.81,32.15,1017.06,246.3,18.5,345,4.63,399.91,2,-9,9,-9,0.11,5.21,80.01,29.77,225.740471
AOML_Explorer,Ex0533W,227.207,15082005,4:57:22,24.178,-81.124,408.71,-9,1017.12,1014.57,29.9,30.38,36.041,1.32,88.98,32.15,1017.12,246.8,18.6,355,4.63,399.11,2,-9,9,-9,0.12,4.98,71.93,29.79,225.626315
AOML_Explorer,Ex0533W,227.208,15082005,4:59:55,24.173,-81.137,408.89,-9,1017.24,1014.64,29.91,30.35,36.027,1.3,88.82,32.14,1017.24,246.5,18.7,358,4.63,398.63,2,-9,9,-9,0.1,5,68.61,29.75,225.665274
AOML_Explorer,Ex0533W,227.22,15082005,5:16:34,24.139,-81.225,401.92,-9,1017.29,1014.72,29.75,30.3,36.015,1.32,89.58,32.17,1017.29,246.9,18.8,322,3.6,393.53,2,-9,9,-9,0.11,7.2,84.94,29.78,225.273238
AOML_Explorer,Ex0533W,227.222,15082005,5:19:07,24.134,-81.238,402.5,-9,1017.24,1014.69,29.77,30.3,36.008,1.34,89.6,32.17,1017.24,246.5,18.9,336,4.12,393.8,2,-9,9,-9,0.11,6.21,82.35,29.74,225.471113
AOML_Explorer,Ex0533W,227.223,15082005,5:21:40,24.128,-81.252,403.13,-9,1017.14,1014.6,29.79,30.3,36.008,1.32,89.29,32.18,1017.14,246.8,18.9,310,4.12,394.08,2,-9,9,-9,0.1,7.78,90.87,29.71,225.371092
AOML_Explorer,Ex0533W,227.225,15082005,5:24:13,24.123,-81.265,403.78,-9,1017.11,1014.53,29.8,30.3,36.016,1.33,89.32,32.17,1017.11,246.6,18.8,307,5.15,394.59,2,-9,9,-9,0.1,7.77,98.6,29.76,225.221455
AOML_Explorer,Ex0533W,227.227,15082005,5:26:46,24.118,-81.279,404.14,-9,1017.1,1014.55,29.8,30.32,36.005,1.32,89.43,32.17,1017.1,246.6,18.7,313,4.63,395.19,2,-9,9,-9,0.1,7.31,94.28,29.72,225.156743
AOML_Explorer,Ex0533W,227.229,15082005,5:29:19,24.113,-81.292,404.43,-9,1017.11,1014.54,29.79,30.32,36.005,1.32,89.26,32.17,1017.11,246.5,18.7,316,4.63,395.57,2,-9,9,-9,0.1,7.06,93.56,29.79,224.997338
AOML_Explorer,Ex0533W,227.23,15082005,5:31:52,24.107,-81.305,404.59,-9,1017.01,1014.52,29.81,30.32,35.995,1.33,89.13,32.17,1017.01,246.7,18.7,329,3.09,395.55,2,-9,9,-9,0.11,7.14,79.38,29.74,225.309281
AOML_Explorer,Ex0533W,227.232,15082005,5:34:25,24.102,-81.319,405.05,-9,1016.99,1014.42,29.81,30.3,35.988,1.35,89.24,32.16,1016.99,246.7,18.7,348,3.6,395.57,2,-9,9,-9,0.1,6.14,73.56,29.7,225.507949
AOML_Explorer,Ex0533W,227.234,15082005,5:36:58,24.097,-81.332,404.93,-9,1016.85,1014.31,29.81,30.29,35.972,1.34,88.94,32.16,1016.85,246.8,18.7,0,3.6,395.29,2,-9,9,-9,0.11,6.02,66.31,29.71,225.577957
AOML_Explorer,Ex0533W,227.236,15082005,5:39:31,24.092,-81.345,404.58,-9,1016.83,1014.18,29.79,30.3,35.962,1.32,89.26,32.16,1016.83,246.9,18.7,343,3.09,395.26,2,-9,9,-9,0.1,6.73,74.51,29.7,225.294099
AOML_Explorer,Ex0533W,227.238,15082005,5:42:04,24.087,-81.359,404.2,-9,1016.72,1014.17,29.79,30.27,35.957,1.34,88.97,32.16,1016.72,246.9,18.7,343,4.12,394.5,2,-9,9,-9,0.11,5.78,78.33,29.65,225.181027
AOML_Explorer,Ex0533W,227.239,15082005,5:44:37,24.081,-81.372,403.75,-9,1016.77,1014.19,29.79,30.25,35.952,1.32,88.95,32.15,1016.77,246.7,18.7,348,4.12,393.94,2,-9,9,-9,0.1,5.65,75.01,29.62,224.859051
AOML_Explorer,Ex0533W,227.241,15082005,5:47:10,24.076,-81.385,403.54,-9,1016.74,1014.16,29.77,30.26,35.95,1.34,89,32.15,1016.74,246.9,18.7,339,4.63,394.08,2,-9,9,-9,0.1,5.54,84.25,29.6,225.418614
AOML_Explorer,Ex0533W,227.243,15082005,5:49:43,24.071,-81.399,403.29,-9,1016.74,1014.08,29.77,30.25,35.945,1.34,88.93,32.15,1016.74,247.1,18.8,358,5.15,393.78,2,-9,9,-9,0.1,4.54,69.29,29.69,225.534935
AOML_Explorer,Ex0533W,227.245,15082005,5:52:16,24.066,-81.412,403.11,-9,1016.71,1014.08,29.76,30.26,35.922,1.32,88.96,32.15,1016.71,247.1,18.8,357,4.63,393.71,2,-9,9,-9,0.09,5.05,69.53,29.67,225.555617
AOML_Explorer,Ex0533W,227.246,15082005,5:54:49,24.06,-81.426,402.92,-9,1016.68,1014.09,29.75,30.27,35.935,1.34,88.57,32.15,1016.68,246.6,18.8,358,4.12,393.88,2,-9,9,-9,0.09,5.56,67.84,29.56,225.716534
AOML_Explorer,Ex0533W,227.248,15082005,5:57:22,24.056,-81.439,403.03,-9,1016.62,1014.02,29.77,30.24,35.942,1.33,87.79,32.14,1016.62,253.3,18.8,11,4.63,393.34,2,-9,9,-9,0.09,5.23,62.76,29.6,225.777543
AOML_Explorer,Ex0533W,227.25,15082005,5:59:55,24.053,-81.453,403.2,-9,1016.6,1014,29.77,30.25,35.929,1.34,89.2,32.14,1016.6,257.4,18.7,24,4.63,393.6,2,-9,9,-9,0.09,5.69,58.33,29.62,225.536247
AOML_Explorer,Ex0533W,227.263,15082005,6:19:07,24.03,-81.56,402.18,-9,1016.35,1013.78,29.78,30.3,35.913,1.29,89.28,32.2,1016.35,253.7,18.6,16,3.6,392.9,2,-9,9,-9,0.1,6.23,64.82,29.61,224.185038
AOML_Explorer,Ex0533W,227.265,15082005,6:21:40,24.026,-81.573,402.93,-9,1016.4,1013.88,29.78,30.29,35.919,1.29,89.06,32.2,1016.4,250.3,18.6,33,3.09,393.56,2,-9,9,-9,0.12,7.17,56.77,29.58,224.365848
AOML_Explorer,Ex0533W,227.267,15082005,6:24:13,24.021,-81.587,403.62,-9,1016.41,1013.83,29.79,30.28,35.906,1.32,89.26,32.2,1016.41,246,18.5,322,3.6,394.01,2,-9,9,-9,0.1,7.08,84.55,29.63,223.955505
AOML_Explorer,Ex0533W,227.269,15082005,6:26:46,24.015,-81.6,404.04,-9,1016.33,1013.75,29.77,30.28,35.913,1.3,89.17,32.19,1016.33,245.1,18.6,316,3.6,394.61,2,-9,9,-9,0.09,7.42,84.93,29.63,223.388443
AOML_Explorer,Ex0533W,227.27,15082005,6:29:19,24.01,-81.613,404.29,-9,1016.25,1013.67,29.77,30.27,35.923,1.3,89,32.19,1016.25,244.7,18.5,326,4.12,394.67,2,-9,9,-9,0.1,6.51,85.23,29.6,222.549998
AOML_Explorer,Ex0533W,227.272,15082005,6:31:52,24.004,-81.626,404.48,-9,1016.23,1013.68,29.77,30.29,35.929,1.3,89.02,32.19,1016.23,244.4,18.4,334,2.57,395.25,2,-9,9,-9,0.1,7.23,73.3,29.59,221.855697
AOML_Explorer,Ex0533W,227.274,15082005,6:34:25,23.998,-81.639,404.64,-9,1016.19,1013.58,29.77,30.3,35.933,1.3,89.07,32.19,1016.19,245.1,18.4,330,2.57,395.51,2,-9,9,-9,0.09,7.36,75.18,29.63,222.775668
AOML_Explorer,Ex0533W,227.276,15082005,6:36:58,23.993,-81.652,404.87,-9,1016.1,1013.52,29.79,30.32,35.942,1.3,88.92,32.18,1016.1,244.4,18.3,325,3.09,395.77,2,-9,9,-9,0.1,7.09,78.67,29.59,223.430859
AOML_Explorer,Ex0533W,227.277,15082005,6:39:31,23.987,-81.665,404.88,-9,1016.01,1013.43,29.79,30.36,35.948,1.28,88.81,32.18,1016.01,244.7,18.3,314,2.57,396.07,2,-9,9,-9,0.1,7.84,78.27,29.59,224.078323
AOML_Explorer,Ex0533W,227.279,15082005,6:42:04,23.982,-81.678,405.21,-9,1015.99,1013.44,29.82,30.36,35.957,1.3,89.14,32.18,1015.99,244.6,18.4,302,3.09,396.1,2,-9,9,-9,0.1,8.23,82.94,29.6,224.533733
AOML_Explorer,Ex0533W,227.281,15082005,6:44:37,23.976,-81.691,405.58,-9,1015.98,1013.4,29.84,30.36,35.961,1.31,88.8,32.17,1015.98,244.6,18.6,293,2.57,396.15,2,-9,9,-9,0.09,8.87,80.04,29.63,224.469402
AOML_Explorer,Ex0533W,227.283,15082005,6:47:10,23.97,-81.703,405.89,-9,1015.84,1013.3,29.85,30.35,35.959,1.31,88.99,32.17,1015.84,244.3,18.5,313,3.09,396.13,2,-9,9,-9,0.1,7.72,81.11,29.66,224.671486
AOML_Explorer,Ex0533W,227.285,15082005,6:49:43,23.965,-81.716,406.11,-9,1015.89,1013.27,29.85,30.33,35.95,1.28,88.91,32.17,1015.89,244.5,18.6,312,4.12,396.06,2,-9,9,-9,0.09,7.44,88.68,29.55,224.682424
AOML_Explorer,Ex0533W,227.286,15082005,6:52:16,23.959,-81.729,406.25,-9,1015.82,1013.21,29.84,30.3,35.946,1.31,88.84,32.16,1015.82,244.2,18.7,320,3.09,395.95,2,-9,9,-9,0.11,7.5,79.35,29.52,224.200931
AOML_Explorer,Ex0533W,227.288,15082005,6:54:49,23.953,-81.742,406.17,-9,1015.71,1013.15,29.82,30.3,35.936,1.31,88.73,32.16,1015.71,244.2,18.7,340,3.09,395.99,2,-9,9,-9,0.11,6.78,72.77,29.54,223.606878
AOML_Explorer,Ex0533W,227.29,15082005,6:57:22,23.947,-81.755,406.05,-9,1015.72,1013.13,29.8,30.27,35.936,1.3,88.7,32.16,1015.72,244.2,18.6,325,3.09,395.86,2,-9,9,-9,0.1,7.23,78.06,29.53,223.100096
AOML_Explorer,Ex0533W,227.292,15082005,6:59:55,23.942,-81.768,405.83,-9,1015.87,1013.25,29.79,30.27,35.927,1.32,88.81,32.16,1015.87,243.8,18.6,333,3.09,395.81,2,-9,9,-9,0.12,6.92,74.97,29.5,222.892355
AOML_Explorer,Ex0533W,227.305,15082005,7:19:07,23.898,-81.867,403.22,-9,1015.79,1013.13,29.74,30.18,35.918,1.32,89.25,32.22,1015.79,244.3,18.9,307,5.15,392.83,2,-9,9,-9,0.09,7.73,96.05,29.5,224.735178
AOML_Explorer,Ex0533W,227.307,15082005,7:21:40,23.892,-81.881,403.69,-9,1015.86,1013.19,29.71,30.21,35.922,1.29,89.17,32.23,1015.86,244.2,19.2,284,4.12,394.05,2,-9,9,-9,0.09,9.7,88.46,29.51,224.550667
AOML_Explorer,Ex0533W,227.308,15082005,7:24:13,23.886,-81.894,403.85,-9,1015.87,1013.2,29.71,30.22,35.939,1.31,89.09,32.23,1015.87,244.1,18.8,299,4.63,394.35,2,-9,9,-9,0.1,8.39,92.69,29.52,224.478582
AOML_Explorer,Ex0533W,227.31,15082005,7:26:46,23.88,-81.907,403.95,-9,1015.88,1013.27,29.72,30.23,35.941,1.3,89,32.23,1015.88,244.8,19.4,306,3.6,394.45,2,-9,9,-9,0.08,8.38,85.22,29.5,224.862702
AOML_Explorer,Ex0533W,227.312,15082005,7:29:19,23.875,-81.92,403.96,-9,1015.89,1013.28,29.73,30.22,35.941,1.3,89.01,32.23,1015.89,244.1,19,303,3.09,394.2,2,-9,9,-9,0.1,8.46,81.87,29.49,225.340286
AOML_Explorer,Ex0533W,227.314,15082005,7:31:52,23.869,-81.934,404.09,-9,1015.93,1013.32,29.74,30.21,35.939,1.3,88.96,32.23,1015.93,244.4,18.9,289,3.09,394.12,2,-9,9,-9,0.08,9.16,82.91,29.55,225.283311
AOML_Explorer,Ex0533W,227.316,15082005,7:34:25,23.863,-81.947,404.21,-9,1015.88,1013.23,29.73,30.24,35.937,1.3,88.34,32.23,1015.88,244.7,18.9,296,4.63,394.72,2,-9,9,-9,0.08,8.71,93.12,29.55,225.117081
AOML_Explorer,Ex0533W,227.317,15082005,7:36:58,23.857,-81.96,404.1,-9,1015.89,1013.22,29.73,30.23,35.943,1.3,88.87,32.22,1015.89,244.4,18.9,291,5.15,394.5,2,-9,9,-9,0.09,9.19,95.81,29.55,225.049785
AOML_Explorer,Ex0533W,227.319,15082005,7:39:31,23.852,-81.974,404.09,-9,1015.84,1013.25,29.74,30.22,35.942,1.29,88.87,32.22,1015.84,244.3,18.9,293,4.63,394.18,2,-9,9,-9,0.09,8.94,92.64,29.58,225.090391
AOML_Explorer,Ex0533W,227.321,15082005,7:42:04,23.846,-81.987,404.12,-9,1015.89,1013.31,29.74,30.24,35.943,1.29,88.98,32.22,1015.89,244.4,18.9,278,3.6,394.48,2,-9,9,-9,0.1,9.85,85.59,29.55,225.0794
AOML_Explorer,Ex0533W,227.323,15082005,7:44:37,23.84,-82.001,403.89,-9,1015.87,1013.21,29.73,30.22,35.951,1.31,88.82,32.21,1015.87,244.2,19,287,5.15,394.08,2,-9,9,-9,0.09,9.55,95.05,29.58,225.227593
AOML_Explorer,Ex0533W,227.324,15082005,7:47:10,23.834,-82.014,403.75,-9,1015.86,1013.23,29.74,30.22,35.947,1.3,88.79,32.21,1015.86,244.3,19,306,4.12,393.82,2,-9,9,-9,0.09,8.02,88.46,29.56,225.362461
AOML_Explorer,Ex0533W,227.326,15082005,7:49:43,23.828,-82.027,403.72,-9,1015.89,1013.25,29.73,30.23,35.947,1.32,88.91,32.21,1015.89,244.1,18.9,306,5.15,394.06,2,-9,9,-9,0.09,7.8,95.9,29.55,225.293446
AOML_Explorer,Ex0533W,227.328,15082005,7:52:16,23.823,-82.041,403.68,-9,1015.89,1013.26,29.73,30.22,35.946,1.3,89.05,32.21,1015.89,244.1,19,291,6.18,393.9,2,-9,9,-9,0.08,9.43,101.56,29.6,225.363711
AOML_Explorer,Ex0533W,227.33,15082005,7:54:49,23.817,-82.054,403.65,-9,1015.85,1013.2,29.74,30.22,35.935,1.29,88.85,32.21,1015.85,244.4,19.2,304,4.12,393.76,2,-9,9,-9,0.08,8.22,88.74,29.64,225.219683
AOML_Explorer,Ex0533W,227.332,15082005,7:57:22,23.811,-82.068,403.66,-9,1015.82,1013.15,29.73,30.21,35.933,1.31,89.1,32.2,1015.82,245,19.4,294,5.66,393.75,2,-9,9,-9,0.11,9.26,98.95,29.56,224.893695
AOML_Explorer,Ex0533W,227.333,15082005,7:59:55,23.805,-82.081,403.68,-9,1015.78,1013.09,29.72,30.19,35.93,1.33,88.99,32.2,1015.78,243.2,18.8,295,5.66,393.66,2,-9,9,-9,0.09,8.73,98.56,29.59,224.559795